Location: Casteau
(50.5142°N, 4.0161°E)
Time: 03:13:30
(UTC+00:00)

Explorer 11/Cluster Stage 4 - Pass Details

Date: 05 August 2021
Orbit: 467 x 1257 km, 28.8° (Epoch: 18 September)

Event Time Altitude Azimuth Distance (km) Brightness Sun altitude
Rises 09:05:35 0° 232° (SW) 4,010 10.0 43.0°
Reaches altitude 10° 09:09:58 10° 209° (SSW) 3,151 9.8 43.6°
Maximum altitude 09:13:47 14° 181° (S) 2,893 10.0 44.1°
Drops below altitude 10° 09:17:39 10° 152° (SSE) 3,225 10.6 44.7°
Sets 09:22:15 0° 130° (SE) 4,171 11.0 45.3°
